STARLINK-6369, 57374

Orbit data source: Space-Track

STARLINK-6369, 57374 is a payload satellite owned by SpaceX/Seattle (US) in LEO that was launched on Sun, 16 Jul 2023 UTC via an FALCON 9 launch vehicle from the Air Force Eastern Test Range (AFETR). Payload-class satellites include a variety of spacecraft equipped with specific instruments for various scientific and technological missions. These include communications satellites like Starlink; space stations such as the ISS; scientific satellites like the Hubble; Earth observation satellites from companies like Planet Labs, Umbra, and HawkEye 360; GPS; miniature CubeSats for education and research; and military/defense satellites.

Loading next visibility...
Identifier
57374, 2023-099AY
Orbit
LEO
Country
Flag of USUS
Related business
Manufacturer
SpaceX/Seattle
Mission
Operational Commercial Communications
Bus & Motor
STARLINK, Unknown motor
Mass
305 kg wet, ~290 kg dry
Launch date (UTC)
2023-07-16 (3 years ago)
Launch vehicle
FALCON 9
Launch site
Air Force Eastern Test Range (AFETR)
Object type
Payload
Rocket body
Debris
Shape & HBR
Box + 1 Pan, 10.1 m
Radar Cross Section
11.087 m², Large (>1 m²)

Expand to show TLE details & history
Last TLE update: 3 days ago

TLE from 3 days ago
0 STARLINK-6369
1 57374U 23099AY  26170.60515321  .00000477  00000-0  26858-4 0  9999
2 57374  43.0047   8.1915 0001565 268.7316  91.3356 15.27577380161998
Epoch: 2026-06-19T14:31Z
TLE epoch observation values (Epoch: 2026-06-19T14:31:25.237Z)
Latitude
-0.00004°
Longitude
-117.49543°
Altitude
482.858 km
Speed
7.626 km/s
True Right ascension
00h 32m 45s
True Declination
0° 00' 00"
Sunlit
Object was in daylight at epoch
Visualization orbit readout
Latitude
Unknown
Longitude
Unknown
Altitude
Unknown
Speed
Unknown
Apparent Right ascension
Unknown
Apparent Declination
Unknown
Sunlit
N/A
Visualization observer readout
Local Sidereal Time
21:28:51
Azimuth
Unknown
Elevation
Unknown
Doppler factor
Unknown
Orbital elements
Apogee altitude
486.075 km
Perigee altitude
483.927 km
Semi-major axis
6,863.138 km
Eccentricity
0.00016
Inclination
43.0047°
RAAN
8.1915°
Arg. of periapsis
268.7316°
True anomaly
91.35353°
Mean anomaly
91.3356°
Eccentric anomaly
91.34456°
Mean motion
3.81732 °/min
Orbital period
94.31 mins
BSTAR
0.000026858
Loading maneuver chart data...
Computing Atmospheric mass density...
Loading historical data...
Loading historical data...
Loading historical data...
Loading historical data...
Loading historical data...
Loading historical data...
Loading historical data...

Documentation

Showing up to 5 results
|